Caldwell, NJ

12:48 PM EST on December 11, 2019 (GMT -0500)
Essex County

Weather History for KCDW - November, 2019

Change the Weather History Date:

Friday, November 22, 2019

  Actual Average Record
Temperature  
Mean Temperature 46 °F -  
Max Temperature 52 °F 48 °F 66 °F (2007)
Min Temperature 37 °F 28 °F 14 °F (1984)
Degree Days  
Heating Degree Days 20    
Moisture  
Dew Point 32 °F    
Average Humidity 58    
Maximum Humidity 83    
Minimum Humidity 39    
Precipitation  
Precipitation 0.05 in - - ()
Sea Level Pressure  
Sea Level Pressure 29.86 in    
Wind  
Wind Speed 6 mph ()    
Max Wind Speed 16 mph    
Max Gust Speed 30 mph    
Visibility 9.4 miles    
Events Rain    
Averages and records for this station are not official NWS values.
T = Trace of Precipitation, MM = Missing Value Source: Averaged Metar Reports

Daily Weather History Graph

Daily Weather History Graph

Search for Another Location

Airport or City:

Astronomy

Nov. 22, 2019 Rise Set
Actual Time 6:52 AM EST 4:33 PM EST
Civil Twilight 6:22 AM EST 5:03 PM EST
Nautical Twilight 5:48 AM EST 5:37 PM EST
Astronomical Twilight 5:15 AM EST 6:10 PM EST
Moon 1:52 AM EST (11/22) 2:35 PM EST (11/22)
Length of Visible Light 10h 41m
Length of Day
9h 41m
Waning Crescent, 20% of the Moon is Illuminated
Nov 22
Waning Crescent
Nov 26
New
Dec 4
First Quarter
Dec 12
Full
Dec 18
Last Quarter

Hourly Weather History & Observations

Time (EST) Temp. Windchill Dew Point Humidity Pressure Visibility Wind Dir Wind Speed Gust Speed Precip Events Conditions
12:53 AM 48.9 °F - 33.1 °F 54% 29.97 in 10.0 mi SSW 5.8 mph - N/A   Mostly Cloudy
1:53 AM 48.9 °F - 33.1 °F 54% 29.95 in 10.0 mi SW 4.6 mph - N/A   Overcast
2:53 AM 48.9 °F - 34.0 °F 56% 29.93 in 10.0 mi WSW 5.8 mph - 0.00 in   Overcast
3:53 AM 48.0 °F - 34.0 °F 58% 29.91 in 10.0 mi Variable 3.5 mph - N/A   Mostly Cloudy
4:53 AM 46.9 °F - 34.0 °F 61% 29.88 in 10.0 mi SW 4.6 mph - N/A   Scattered Clouds
5:53 AM 48.0 °F - 35.1 °F 61% 29.87 in 10.0 mi WSW 4.6 mph - N/A   Overcast
6:53 AM 48.0 °F - 36.0 °F 63% 29.85 in 10.0 mi SSW 5.8 mph - N/A   Overcast
7:53 AM 48.9 °F - 37.0 °F 64% 29.83 in 10.0 mi Variable 4.6 mph - N/A   Overcast
8:53 AM 50.0 °F - 37.9 °F 63% 29.78 in 10.0 mi SSW 8.1 mph - N/A   Clear
9:53 AM 51.1 °F - 37.9 °F 61% 29.80 in 10.0 mi Variable 5.8 mph - N/A   Overcast
10:53 AM 52.0 °F - 37.9 °F 59% 29.77 in 10.0 mi Variable 6.9 mph - N/A   Overcast
11:53 AM 52.0 °F - 41.0 °F 66% 29.72 in 7.0 mi Variable 5.8 mph - 0.00 in Rain Light Rain
12:48 PM 50.0 °F - 44.6 °F 82% 29.70 in 4.0 mi Variable 3.5 mph - 0.03 in Rain Light Rain
12:53 PM 50.0 °F - 45.0 °F 83% 29.72 in 4.0 mi Variable 5.8 mph - 0.03 in Rain Light Rain
1:53 PM 50.0 °F - 43.0 °F 77% 29.72 in 10.0 mi West 6.9 mph - 0.02 in   Overcast
2:53 PM 48.9 °F - 37.9 °F 66% 29.74 in 10.0 mi NW 13.8 mph 24.2 mph N/A   Mostly Cloudy
3:53 PM 46.9 °F - 33.1 °F 59% 29.79 in 10.0 mi NW 16.1 mph 19.6 mph N/A   Clear
4:53 PM 46.9 °F - 28.9 °F 50% 29.83 in 10.0 mi NW 13.8 mph 20.7 mph N/A   Clear
5:53 PM 46.0 °F 39.9 °F 21.9 °F 39% 29.88 in 10.0 mi NW 13.8 mph 29.9 mph N/A   Clear
6:53 PM 44.1 °F 37.7 °F 21.0 °F 40% 29.93 in 10.0 mi WNW 12.7 mph - N/A   Partly Cloudy
7:53 PM 42.1 °F 35.2 °F 21.0 °F 43% 29.95 in 10.0 mi NW 12.7 mph 19.6 mph N/A   Clear
8:53 PM 42.1 °F 35.7 °F 19.9 °F 41% 29.96 in 10.0 mi NW 11.5 mph - N/A   Clear
9:53 PM 39.9 °F 35.8 °F 19.9 °F 45% 30.00 in 10.0 mi NNW 5.8 mph - N/A   Clear
10:53 PM 39.0 °F 33.4 °F 19.9 °F 46% 30.01 in 10.0 mi NW 8.1 mph - N/A   Clear
11:53 PM 37.9 °F 35.5 °F 19.9 °F 48% 30.04 in 10.0 mi Variable 3.5 mph - N/A   Clear